Hourly Data Report for October 09, 2006

TORONTO CITY
ONTARIO

43°40'00.000" N
79°24'00.000" W
112.50 m
6158355
71508
XTO

Download Data

Hourly Data (October 2006)
Hourly Data Report for October 9, 2006
TIME
LST
Temp Definition
°C
Dew Point Definition
°C
Rel Hum Definition
%
Precip. Amount Definition
mm

Wind Dir Definition
10's deg

Wind Spd Definition
km/h
Visibility Definition
km
Stn Press Definition
kPa
Hmdx Definition


Wind Chill Definition


Weather Definition


00:00 13.8 13.2 96   LegendMM LegendMM   100.66     LegendNANA
01:00 13.1 12.4 96   LegendMM LegendMM   100.66     LegendNANA
02:00 13.0 12.3 96   LegendMM LegendMM   100.63     LegendNANA
03:00 12.5 11.8 95   LegendMM LegendMM   100.62     LegendNANA
04:00 12.4 11.4 94   LegendMM LegendMM   100.63     LegendNANA
05:00 12.2 11.4 95   LegendMM LegendMM   100.64     LegendNANA
06:00 12.2 11.1 93   LegendMM LegendMM   100.69     LegendNANA
07:00 11.4 10.0 91   LegendMM LegendMM   100.71     LegendNANA
08:00 12.9 10.9 88   LegendMM LegendMM   100.75     LegendNANA
09:00 15.2 11.6 79   LegendMM LegendMM   100.77     LegendNANA
10:00 17.4 11.5 68   LegendMM LegendMM   100.79     LegendNANA
11:00 19.0 11.2 61   LegendMM LegendMM   100.79     LegendNANA
12:00 19.9 11.4 58   LegendMM LegendMM   100.75     LegendNANA
13:00 20.5 11.3 56   LegendMM LegendMM   100.69     LegendNANA
14:00 20.5 11.3 56   LegendMM LegendMM   100.65     LegendNANA
15:00 20.8 11.7 56   LegendMM LegendMM   100.62     LegendNANA
16:00 19.7 10.6 56   LegendMM LegendMM   100.62     LegendNANA
17:00 18.5 11.1 62   LegendMM LegendMM   100.64     LegendNANA
18:00 17.2 9.8 62   LegendMM LegendMM   100.65     LegendNANA
19:00 16.5 8.5 59   LegendMM LegendMM   100.66     LegendNANA
20:00 15.5 7.3 58   LegendMM LegendMM   100.67     LegendNANA
21:00 14.8 7.5 62   LegendMM LegendMM   100.70     LegendNANA
22:00 14.2 8.3 68   LegendMM LegendMM   100.67     LegendNANA
23:00 13.8 8.9 72   LegendMM LegendMM   100.67     LegendNANA

Notes on Data Quality.

Legend

  • E = Estimated
  • M = Missing
  • NA = Not Available*
  • [empty] = Indicates an unobserved value
Date modified: